Location: White Rock
(35.8256°N, 106.1876°W)
Time: 19:12:30
(UTC-06:00)

N. Korean satellite - Visible Passes

Search period start: 20 October 2021 00:00
Search period end: 30 October 2021 00:00
Orbit: 450 x 495 km, 97.3° (Epoch: 20 October)

Date Brightness Start Highest point End Pass type
(mag) Time Alt. Az. Time Alt. Az. Time Alt. Az.
20 Oct 6.8 06:13:00 10° NNE 06:16:39 73° E 06:20:15 10° S visible
21 Oct 8.8 05:45:21 10° NE 05:48:33 28° E 05:51:42 10° SSE visible
22 Oct 10.0 05:18:45 10° ENE 05:20:19 12° E 05:21:51 10° ESE visible
22 Oct 7.3 06:50:20 10° N 06:53:36 32° WNW 06:56:50 10° SW visible
23 Oct 6.5 06:21:57 10° N 06:25:37 82° WNW 06:29:12 10° SSW visible
24 Oct 8.2 05:54:06 10° NNE 05:57:30 37° E 06:00:52 10° SSE visible
25 Oct 9.7 05:26:58 10° NE 05:29:17 16° E 05:31:34 10° SE visible
26 Oct 6.5 06:30:54 10° N 06:34:28 60° WNW 06:37:59 10° SSW visible
27 Oct 7.5 06:02:50 10° NNE 06:06:22 51° E 06:09:50 10° S visible
28 Oct 9.3 05:35:23 10° NE 05:38:09 21° E 05:40:53 10° SE visible
29 Oct 6.9 06:39:47 10° N 06:43:14 44° WNW 06:46:37 10° SSW visible
29 Oct 10.6 18:46:51 10° WSW 18:47:35 10° W 18:48:19 10° W visible
